This is the latest recevied weather packets stored in our database for station/object SV7GBF-2. If no packets are shown the sender has not sent any weather packets the latest 10 day(s).
| Time | Temp. | Humidity | Pressure | Rain* | Wind** | Luminosity | Snow |
|---|---|---|---|---|---|---|---|
| 1788486692 | 21.67° C | 44% | 1014 hPa | - | - | - | - |
| 1788486245 | 21.67° C | 44% | 1014 hPa | - | - | - | - |
| 1788485645 | 21.67° C | 44% | 1014 hPa | - | - | - | - |
| 1788482674 | 22.78° C | 40% | 1014 hPa | - | - | - | - |
| 1788481448 | 23.33° C | 41% | 1014 hPa | - | - | - | - |
| 1788479045 | 22.78° C | 43% | 1014 hPa | - | - | - | - |
| 1788477846 | 23.33° C | 44% | 1015 hPa | - | - | - | - |
| 1788476644 | 22.78° C | 44% | 1015 hPa | - | - | - | - |
| 1788476045 | 22.22° C | 45% | 1015 hPa | - | - | - | - |
| 1788475446 | 22.22° C | 43% | 1015 hPa | - | - | - | - |
| 1788474845 | 22.78° C | 42% | 1015 hPa | - | - | - | - |
| 1788474245 | 22.78° C | 42% | 1015 hPa | - | - | - | - |
| 1788473648 | 23.33° C | 43% | 1015 hPa | - | - | - | - |
| 1788473047 | 23.33° C | 43% | 1015 hPa | - | - | - | - |
| 1788472445 | 23.33° C | 44% | 1014 hPa | - | - | - | - |
| 1788469445 | 23.89° C | 47% | 1014 hPa | - | - | - | - |
| 1788467645 | 23.89° C | 52% | 1014 hPa | - | - | - | - |
| 1788466446 | 23.89° C | 50% | 1015 hPa | - | - | - | - |
| 1788465846 | 23.89° C | 56% | 1015 hPa | - | - | - | - |
| 1788465279 | 23.89° C | 55% | 1015 hPa | - | - | - | - |
| 1788465247 | 23.89° C | 55% | 1015 hPa | - | - | - | - |
| 1788464045 | 24.44° C | 58% | 1014 hPa | - | - | - | - |
| 1788463445 | 25° C | 60% | 1015 hPa | - | - | - | - |
| 1788462846 | 24.44° C | 61% | 1015 hPa | - | - | - | - |
| 1788462245 | 24.44° C | 60% | 1015 hPa | - | - | - | - |
* Rain since midnight (hover to see other rain measurements)
** Current wind speed in m/s (hover to see current wind gust speed)